This is the latest recevied weather packets stored in our database for station/object AD8BV. If no packets are shown the sender has not sent any weather packets the latest 10 day(s).
| Time | Temp. | Humidity | Pressure | Rain* | Wind** | Luminosity | Snow |
|---|---|---|---|---|---|---|---|
| 1778038647 | 8.33° C | 68% | 1010.8 hPa | 0 mm | - | 0 W/m² | - |
| 1778038345 | 8.33° C | 66% | 1010.8 hPa | 0 mm | - | 0 W/m² | - |
| 1778038041 | 8.33° C | 68% | 1010.5 hPa | 0 mm | - | 0 W/m² | - |
| 1778037738 | 8.33° C | 68% | 1010.7 hPa | 0 mm | - | 0 W/m² | - |
| 1778037435 | 8.33° C | 67% | 1010.7 hPa | 0 mm | - | 0 W/m² | - |
| 1778037132 | 8.33° C | 66% | 1010.7 hPa | 0 mm | - | 0 W/m² | - |
| 1778036831 | 8.33° C | 64% | 1010.7 hPa | 0 mm | - | 0 W/m² | - |
| 1778036527 | 8.33° C | 64% | 1010.6 hPa | 0 mm | - | 0 W/m² | - |
| 1778036224 | 8.33° C | 65% | 1010.9 hPa | 0 mm | - | 0 W/m² | - |
| 1778035921 | 8.33° C | 66% | 1010.5 hPa | 0 mm | - | 0 W/m² | - |
| 1778035618 | 8.33° C | 67% | 1010.6 hPa | 0 mm | - | 0 W/m² | - |
| 1778035314 | 8.33° C | 65% | 1010.8 hPa | 0 mm | - | 0 W/m² | - |
| 1778035010 | 8.33° C | 66% | 1010.7 hPa | 0 mm | - | 0 W/m² | - |
| 1778034708 | 8.33° C | 65% | 1010.6 hPa | 0 mm | - | 0 W/m² | - |
| 1778034405 | 8.33° C | 65% | 1010.5 hPa | 0 mm | - | 0 W/m² | - |
| 1778034102 | 8.33° C | 68% | 1010.5 hPa | 0 mm | - | 0 W/m² | - |
| 1778033800 | 8.33° C | 66% | 1010.7 hPa | 0 mm | - | 0 W/m² | - |
| 1778033497 | 8.33° C | 66% | 1010.5 hPa | 0 mm | - | 0 W/m² | - |
| 1778033194 | 8.33° C | 67% | 1010.6 hPa | 0 mm | - | 0 W/m² | - |
| 1778032892 | 8.33° C | 64% | 1010.3 hPa | 0 mm | - | 0 W/m² | - |
| 1778032589 | 8.33° C | 65% | 1010.4 hPa | 0 mm | - | 0 W/m² | - |
| 1778032286 | 8.33° C | 65% | 1010.3 hPa | 0 mm | - | 0 W/m² | - |
| 1778031984 | 8.33° C | 66% | 1010.3 hPa | 0 mm | - | 0 W/m² | - |
| 1778031679 | 8.33° C | 64% | 1010.3 hPa | 0 mm | - | 0 W/m² | - |
| 1778031378 | 8.33° C | 65% | 1010.4 hPa | 0 mm | - | 0 W/m² | - |
* Rain latest hour (hover to see other rain measurements)
** Current wind speed in m/s (hover to see current wind gust speed)